Simultaneous Nadir Overpasses (SNOs) Predictions

Prediction of SNOs between GOES-15 and METOP-A Satellite Orbit:

Table of predicted SNOs for the next 14.0 days since TLE Epoch: 11/27/2015
Index Date Time (GOES-15) GOES-15 Lat,Lon METOP-A Lat,Lon Distance(km) Time Diff (sec)
1 11/27/2015 18:36:59 -0.20,-135.48 0.08,-136.82 152.60 80
2 11/28/2015 18:13:41 -0.21,-135.48 -1.03,-131.83 416.04 80
3 11/30/2015 06:35:22 0.19,-135.43 -0.02,-136.42 112.37 80
4 12/01/2015 06:12:03 0.20,-135.42 1.10,-131.43 455.70 80
5 12/02/2015 18:33:36 -0.18,-135.45 -0.05,-135.98 60.52 80
6 12/05/2015 06:31:58 0.17,-135.40 0.13,-135.58 20.90 80
7 12/07/2015 18:30:12 -0.16,-135.40 -0.20,-135.14 29.17 80
8 12/09/2015 06:49:14 0.15,-135.35 -0.82,-139.74 499.68 80
9 12/10/2015 06:25:55
